Location: Ocean City
(38.3360°N, 75.0850°W)
Time: 20:12:18
(UTC-05:00)

Explorer 11/Cluster Stage 4 - Pass Details

Date: 18 November 2019
Orbit: 467 x 1259 km, 28.8° (Epoch: 05 December)

Event Time Altitude Azimuth Distance (km) Brightness Sun altitude
Rises 21:53:14 0° 253° (WSW) 3,494 - -59.2°
Reaches altitude 10° 21:55:47 10° 245° (WSW) 2,673 - -59.6°
Maximum altitude 22:01:52 39° 179° (S) 1,572 - -60.6°
Drops below altitude 10° 22:08:59 10° 115° (ESE) 3,129 - -61.8°
Sets 22:12:13 0° 108° (ESE) 4,153 - -62.3°
